Voltar ao catálogo

STARLINK-36518

AtivoComunicaçõesVLEO
NORAD 67453·PAYLOAD·🇺🇸 United States

Lançado Jan 14, 2026 de Cape Canaveral Space Force Station

Loading…

Próximas Passagens (próximas 24 horas)

TLE

AtualizadoSource: CelesTrak SupGP

Época: Sep 15, 2026, 03:10 UTC

1 67453C 26008J   26258.13243056 -.00035708  00000+0 -12936-2 0  2583
2 67453  43.0027 215.4985 0001307 269.7540  73.5592 15.27588283    12

Acompanhe STARLINK-36518 em tempo real com AllMySat

Download on the App Store